PRIVATE WETTERSTATION BILLIGHEIM-ALLFELD                       ZURCK
Wetterdaten: Dienstag, 04.07.2017
Datum Zeit Temp. A. Temp. A. min Temp. A. max Feuchte A. Luftdruck Regen Wind Richtung Richtung Sonnenschein ET Solar Taupunkt Windchill Windben Empfang
04.07.2017 00:00 16,8 C 16,8 C 17,1 C 77 % 1019,6 hPa 0,0 l/m 0,0 km/h (0 Bft) N 0 0 min 0,025 mm 0 W/m 12,7 C 16,8 C 0,0 km/h (0 Bft) 98 %
04.07.2017 00:10 16,6 C 16,6 C 16,8 C 78 % 1019,5 hPa 0,0 l/m 0,0 km/h (0 Bft) N 0 0 min 0,000 mm 0 W/m 12,7 C 16,6 C 0,0 km/h (0 Bft) 96 %
04.07.2017 00:20 16,3 C 16,3 C 16,6 C 78 % 1019,6 hPa 0,0 l/m 0,0 km/h (0 Bft) SW 225 0 min 0,000 mm 0 W/m 12,5 C 16,3 C 1,6 km/h (1 Bft) 98 %
04.07.2017 00:30 16,3 C 16,3 C 16,3 C 78 % 1019,6 hPa 0,0 l/m 0,0 km/h (0 Bft) SW 225 0 min 0,000 mm 0 W/m 12,5 C 16,3 C 4,8 km/h (1 Bft) 97 %
04.07.2017 00:40 16,3 C 16,3 C 16,3 C 78 % 1019,6 hPa 0,0 l/m 0,0 km/h (0 Bft) N 0 0 min 0,000 mm 0 W/m 12,5 C 16,3 C 0,0 km/h (0 Bft) 98 %
04.07.2017 00:50 16,2 C 16,2 C 16,3 C 78 % 1019,6 hPa 0,0 l/m 0,0 km/h (0 Bft) N 0 0 min 0,000 mm 0 W/m 12,4 C 16,2 C 0,0 km/h (0 Bft) 98 %
04.07.2017 01:00 16,1 C 16,1 C 16,2 C 80 % 1019,6 hPa 0,0 l/m 0,0 km/h (0 Bft) N 0 0 min 0,025 mm 0 W/m 12,6 C 16,1 C 0,0 km/h (0 Bft) 97 %
04.07.2017 01:10 15,9 C 15,9 C 16,1 C 80 % 1019,6 hPa 0,0 l/m 0,0 km/h (0 Bft) N 0 0 min 0,000 mm 0 W/m 12,5 C 15,9 C 0,0 km/h (0 Bft) 98 %
04.07.2017 01:20 15,7 C 15,7 C 15,9 C 80 % 1019,5 hPa 0,0 l/m 0,0 km/h (0 Bft) N 0 0 min 0,000 mm 0 W/m 12,3 C 15,7 C 0,0 km/h (0 Bft) 97 %
04.07.2017 01:30 15,6 C 15,6 C 15,7 C 81 % 1019,6 hPa 0,0 l/m 0,0 km/h (0 Bft) N 0 0 min 0,000 mm 0 W/m 12,3 C 15,6 C 0,0 km/h (0 Bft) 98 %
04.07.2017 01:40 15,3 C 15,3 C 15,6 C 82 % 1019,5 hPa 0,0 l/m 0,0 km/h (0 Bft) N 0 0 min 0,000 mm 0 W/m 12,2 C 15,3 C 0,0 km/h (0 Bft) 89 %
04.07.2017 01:50 15,1 C 15,1 C 15,3 C 83 % 1019,5 hPa 0,0 l/m 0,0 km/h (0 Bft) N 0 0 min 0,000 mm 0 W/m 12,2 C 15,1 C 0,0 km/h (0 Bft) 96 %
04.07.2017 02:00 14,7 C 14,7 C 15,1 C 84 % 1019,4 hPa 0,0 l/m 0,0 km/h (0 Bft) N 0 0 min 0,025 mm 0 W/m 12,0 C 14,7 C 0,0 km/h (0 Bft) 98 %
04.07.2017 02:10 14,3 C 14,3 C 14,7 C 85 % 1019,4 hPa 0,0 l/m 0,0 km/h (0 Bft) N 0 0 min 0,000 mm 0 W/m 11,8 C 14,3 C 0,0 km/h (0 Bft) 97 %
04.07.2017 02:20 14,1 C 14,1 C 14,3 C 86 % 1019,3 hPa 0,0 l/m 0,0 km/h (0 Bft) N 0 0 min 0,000 mm 0 W/m 11,8 C 14,1 C 0,0 km/h (0 Bft) 98 %
04.07.2017 02:30 13,9 C 13,9 C 14,1 C 87 % 1019,3 hPa 0,0 l/m 0,0 km/h (0 Bft) N 0 0 min 0,000 mm 0 W/m 11,8 C 13,9 C 0,0 km/h (0 Bft) 97 %
04.07.2017 02:40 13,8 C 13,8 C 13,9 C 88 % 1019,3 hPa 0,0 l/m 0,0 km/h (0 Bft) N 0 0 min 0,000 mm 0 W/m 11,8 C 13,8 C 0,0 km/h (0 Bft) 98 %
04.07.2017 02:50 13,6 C 13,6 C 13,8 C 88 % 1019,3 hPa 0,0 l/m 0,0 km/h (0 Bft) N 0 0 min 0,000 mm 0 W/m 11,6 C 13,6 C 0,0 km/h (0 Bft) 97 %
04.07.2017 03:00 13,5 C 13,5 C 13,6 C 89 % 1019,2 hPa 0,0 l/m 0,0 km/h (0 Bft) SW 225 0 min 0,000 mm 0 W/m 11,7 C 13,5 C 1,6 km/h (1 Bft) 97 %
04.07.2017 03:10 13,5 C 13,5 C 13,6 C 89 % 1019,3 hPa 0,0 l/m 0,0 km/h (0 Bft) N 0 0 min 0,000 mm 0 W/m 11,7 C 13,5 C 0,0 km/h (0 Bft) 98 %
04.07.2017 03:20 13,5 C 13,5 C 13,6 C 89 % 1019,3 hPa 0,0 l/m 0,0 km/h (0 Bft) N 0 0 min 0,000 mm 0 W/m 11,7 C 13,5 C 0,0 km/h (0 Bft) 97 %
04.07.2017 03:30 13,6 C 13,5 C 13,6 C 90 % 1019,3 hPa 0,0 l/m 0,0 km/h (0 Bft) N 0 0 min 0,000 mm 0 W/m 12,0 C 13,6 C 0,0 km/h (0 Bft) 97 %
04.07.2017 03:40 13,7 C 13,6 C 13,7 C 90 % 1019,2 hPa 0,0 l/m 0,0 km/h (0 Bft) N 0 0 min 0,000 mm 0 W/m 12,1 C 13,7 C 0,0 km/h (0 Bft) 97 %
04.07.2017 03:50 13,7 C 13,7 C 13,7 C 90 % 1019,1 hPa 0,0 l/m 0,0 km/h (0 Bft) N 0 0 min 0,000 mm 0 W/m 12,1 C 13,7 C 0,0 km/h (0 Bft) 98 %
04.07.2017 04:00 13,6 C 13,6 C 13,7 C 90 % 1019,2 hPa 0,0 l/m 0,0 km/h (0 Bft) N 0 0 min 0,000 mm 0 W/m 12,0 C 13,6 C 0,0 km/h (0 Bft) 97 %
04.07.2017 04:10 13,6 C 13,6 C 13,6 C 90 % 1019,1 hPa 0,0 l/m 0,0 km/h (0 Bft) N 0 0 min 0,000 mm 0 W/m 12,0 C 13,6 C 0,0 km/h (0 Bft) 97 %
04.07.2017 04:20 13,6 C 13,6 C 13,6 C 90 % 1019,2 hPa 0,0 l/m 0,0 km/h (0 Bft) N 0 0 min 0,000 mm 0 W/m 12,0 C 13,6 C 0,0 km/h (0 Bft) 98 %
04.07.2017 04:30 13,6 C 13,6 C 13,6 C 90 % 1019,1 hPa 0,0 l/m 0,0 km/h (0 Bft) N 0 0 min 0,000 mm 0 W/m 12,0 C 13,6 C 0,0 km/h (0 Bft) 97 %
04.07.2017 04:40 13,6 C 13,6 C 13,6 C 90 % 1019,2 hPa 0,0 l/m 0,0 km/h (0 Bft) N 0 0 min 0,000 mm 0 W/m 12,0 C 13,6 C 0,0 km/h (0 Bft) 98 %
04.07.2017 04:50 13,5 C 13,5 C 13,6 C 90 % 1019,1 hPa 0,0 l/m 0,0 km/h (0 Bft) N 0 0 min 0,000 mm 0 W/m 11,9 C 13,5 C 0,0 km/h (0 Bft) 97 %
04.07.2017 05:00 13,4 C 13,4 C 13,5 C 90 % 1019,2 hPa 0,0 l/m 0,0 km/h (0 Bft) N 0 0 min 0,000 mm 0 W/m 11,8 C 13,4 C 0,0 km/h (0 Bft) 98 %
04.07.2017 05:10 13,4 C 13,3 C 13,4 C 90 % 1019,2 hPa 0,0 l/m 0,0 km/h (0 Bft) N 0 0 min 0,000 mm 0 W/m 11,8 C 13,4 C 0,0 km/h (0 Bft) 97 %
04.07.2017 05:20 13,4 C 13,4 C 13,4 C 90 % 1019,2 hPa 0,0 l/m 0,0 km/h (0 Bft) N 0 0 min 0,000 mm 0 W/m 11,8 C 13,4 C 0,0 km/h (0 Bft) 98 %
04.07.2017 05:30 13,4 C 13,4 C 13,5 C 90 % 1019,3 hPa 0,0 l/m 0,0 km/h (0 Bft) N 0 0 min 0,000 mm 0 W/m 11,8 C 13,4 C 0,0 km/h (0 Bft) 97 %
04.07.2017 05:40 13,6 C 13,5 C 13,6 C 90 % 1019,3 hPa 0,0 l/m 0,0 km/h (0 Bft) N 0 0 min 0,000 mm 0 W/m 12,0 C 13,6 C 0,0 km/h (0 Bft) 97 %
04.07.2017 05:50 13,6 C 13,6 C 13,6 C 90 % 1019,3 hPa 0,0 l/m 0,0 km/h (0 Bft) N 0 0 min 0,000 mm 5 W/m 12,0 C 13,6 C 0,0 km/h (0 Bft) 97 %
04.07.2017 06:00 13,7 C 13,6 C 13,7 C 90 % 1019,4 hPa 0,0 l/m 0,0 km/h (0 Bft) N 0 0 min 0,000 mm 9 W/m 12,1 C 13,7 C 0,0 km/h (0 Bft) 97 %
04.07.2017 06:10 13,7 C 13,6 C 13,7 C 90 % 1019,4 hPa 0,0 l/m 0,0 km/h (0 Bft) N 0 0 min 0,000 mm 21 W/m 12,1 C 13,7 C 0,0 km/h (0 Bft) 98 %
04.07.2017 06:20 13,7 C 13,7 C 13,7 C 90 % 1019,4 hPa 0,0 l/m 0,0 km/h (0 Bft) N 0 0 min 0,000 mm 28 W/m 12,1 C 13,7 C 0,0 km/h (0 Bft) 97 %
04.07.2017 06:30 13,6 C 13,6 C 13,7 C 90 % 1019,5 hPa 0,0 l/m 0,0 km/h (0 Bft) N 0 0 min 0,000 mm 39 W/m 12,0 C 13,6 C 0,0 km/h (0 Bft) 97 %
04.07.2017 06:40 13,6 C 13,6 C 13,6 C 90 % 1019,5 hPa 0,0 l/m 0,0 km/h (0 Bft) N 0 0 min 0,000 mm 42 W/m 12,0 C 13,6 C 0,0 km/h (0 Bft) 97 %
04.07.2017 06:50 13,6 C 13,6 C 13,6 C 90 % 1019,6 hPa 0,0 l/m 0,0 km/h (0 Bft) N 0 0 min 0,000 mm 72 W/m 12,0 C 13,6 C 0,0 km/h (0 Bft) 97 %
04.07.2017 07:00 13,7 C 13,6 C 13,7 C 90 % 1019,7 hPa 0,0 l/m 0,0 km/h (0 Bft) N 0 0 min 0,025 mm 77 W/m 12,1 C 13,7 C 0,0 km/h (0 Bft) 98 %
04.07.2017 07:10 14,0 C 13,8 C 14,0 C 90 % 1019,7 hPa 0,0 l/m 0,0 km/h (0 Bft) SW 225 0 min 0,000 mm 47 W/m 12,4 C 14,0 C 6,4 km/h (2 Bft) 97 %
04.07.2017 07:20 14,2 C 14,0 C 14,2 C 90 % 1019,8 hPa 0,0 l/m 0,0 km/h (0 Bft) N 0 0 min 0,000 mm 53 W/m 12,6 C 14,2 C 0,0 km/h (0 Bft) 98 %
04.07.2017 07:30 14,5 C 14,2 C 14,5 C 90 % 1019,8 hPa 0,0 l/m 0,0 km/h (0 Bft) N 0 0 min 0,000 mm 70 W/m 12,9 C 14,5 C 0,0 km/h (0 Bft) 97 %
04.07.2017 07:40 14,8 C 14,5 C 14,8 C 90 % 1019,8 hPa 0,0 l/m 0,0 km/h (0 Bft) N 0 0 min 0,000 mm 69 W/m 13,2 C 14,8 C 0,0 km/h (0 Bft) 98 %
04.07.2017 07:50 15,2 C 14,8 C 15,2 C 90 % 1019,9 hPa 0,0 l/m 0,0 km/h (0 Bft) N 0 0 min 0,000 mm 69 W/m 13,6 C 15,2 C 0,0 km/h (0 Bft) 98 %
04.07.2017 08:00 15,6 C 15,2 C 15,6 C 89 % 1019,8 hPa 0,0 l/m 0,0 km/h (0 Bft) N 0 0 min 0,025 mm 67 W/m 13,8 C 15,6 C 0,0 km/h (0 Bft) 98 %
04.07.2017 08:10 15,9 C 15,6 C 15,9 C 89 % 1019,9 hPa 0,0 l/m 0,0 km/h (0 Bft) SW 225 0 min 0,000 mm 128 W/m 14,1 C 15,9 C 1,6 km/h (1 Bft) 98 %
04.07.2017 08:20 16,4 C 15,9 C 16,4 C 87 % 1019,8 hPa 0,0 l/m 4,8 km/h (1 Bft) W-NW 292 10 min 0,000 mm 188 W/m 14,2 C 16,4 C 16,1 km/h (3 Bft) 97 %
04.07.2017 08:30 17,2 C 16,4 C 17,2 C 84 % 1019,9 hPa 0,0 l/m 6,4 km/h (2 Bft) W 270 10 min 0,000 mm 401 W/m 14,5 C 17,2 C 12,9 km/h (3 Bft) 98 %
04.07.2017 08:40 18,0 C 17,2 C 18,0 C 81 % 1019,9 hPa 0,0 l/m 4,8 km/h (1 Bft) W-NW 292 10 min 0,000 mm 457 W/m 14,7 C 18,0 C 11,3 km/h (2 Bft) 98 %
04.07.2017 08:50 18,8 C 18,1 C 18,8 C 79 % 1019,9 hPa 0,0 l/m 0,0 km/h (0 Bft) W 270 10 min 0,000 mm 485 W/m 15,1 C 18,8 C 1,6 km/h (1 Bft) 98 %
04.07.2017 09:00 19,4 C 18,8 C 19,4 C 76 % 1020,0 hPa 0,0 l/m 0,0 km/h (0 Bft) NW 315 10 min 0,178 mm 520 W/m 15,1 C 19,4 C 1,6 km/h (1 Bft) 98 %
04.07.2017 09:10 19,9 C 19,4 C 19,9 C 73 % 1020,0 hPa 0,0 l/m 3,2 km/h (1 Bft) NW 315 10 min 0,000 mm 550 W/m 14,9 C 19,9 C 11,3 km/h (2 Bft) 98 %
04.07.2017 09:20 20,5 C 19,9 C 20,5 C 74 % 1020,0 hPa 0,0 l/m 4,8 km/h (1 Bft) NW 315 10 min 0,000 mm 566 W/m 15,7 C 20,5 C 14,5 km/h (3 Bft) 98 %
04.07.2017 09:30 20,9 C 20,5 C 20,9 C 72 % 1020,0 hPa 0,0 l/m 1,6 km/h (1 Bft) W-NW 292 10 min 0,000 mm 608 W/m 15,7 C 20,9 C 9,7 km/h (2 Bft) 97 %
04.07.2017 09:40 21,6 C 20,9 C 21,6 C 69 % 1020,1 hPa 0,0 l/m 0,0 km/h (0 Bft) NW 315 10 min 0,000 mm 635 W/m 15,7 C 21,6 C 11,3 km/h (2 Bft) 98 %
04.07.2017 09:50 21,8 C 21,6 C 21,9 C 68 % 1020,0 hPa 0,0 l/m 4,8 km/h (1 Bft) NW 315 10 min 0,000 mm 657 W/m 15,6 C 21,8 C 12,9 km/h (3 Bft) 98 %
04.07.2017 10:00 22,1 C 21,8 C 22,1 C 70 % 1020,0 hPa 0,0 l/m 4,8 km/h (1 Bft) NW 315 10 min 0,356 mm 675 W/m 16,4 C 22,1 C 9,7 km/h (2 Bft) 97 %
04.07.2017 10:10 22,2 C 22,1 C 22,2 C 68 % 1019,8 hPa 0,0 l/m 1,6 km/h (1 Bft) NW 315 10 min 0,000 mm 687 W/m 16,0 C 22,2 C 9,7 km/h (2 Bft) 97 %
04.07.2017 10:20 22,6 C 22,2 C 22,6 C 64 % 1019,8 hPa 0,0 l/m 3,2 km/h (1 Bft) W-NW 292 10 min 0,000 mm 710 W/m 15,4 C 22,6 C 12,9 km/h (3 Bft) 97 %
04.07.2017 10:30 22,9 C 22,6 C 22,9 C 63 % 1019,7 hPa 0,0 l/m 4,8 km/h (1 Bft) W-NW 292 10 min 0,000 mm 735 W/m 15,5 C 22,9 C 14,5 km/h (3 Bft) 98 %
04.07.2017 10:40 23,3 C 22,9 C 23,3 C 65 % 1019,8 hPa 0,0 l/m 6,4 km/h (2 Bft) W-NW 292 10 min 0,000 mm 752 W/m 16,3 C 23,3 C 16,1 km/h (3 Bft) 97 %
04.07.2017 10:50 23,7 C 23,2 C 23,7 C 63 % 1019,8 hPa 0,0 l/m 4,8 km/h (1 Bft) W-SW 247 10 min 0,000 mm 777 W/m 16,2 C 23,7 C 19,3 km/h (3 Bft) 98 %
04.07.2017 11:00 24,1 C 23,7 C 24,1 C 61 % 1019,7 hPa 0,0 l/m 6,4 km/h (2 Bft) W 270 10 min 0,457 mm 796 W/m 16,1 C 24,1 C 17,7 km/h (3 Bft) 98 %
04.07.2017 11:10 24,5 C 24,1 C 24,5 C 60 % 1019,8 hPa 0,0 l/m 6,4 km/h (2 Bft) NW 315 10 min 0,000 mm 812 W/m 16,2 C 24,5 C 17,7 km/h (3 Bft) 98 %
04.07.2017 11:20 24,8 C 24,1 C 24,8 C 56 % 1019,6 hPa 0,0 l/m 10,1 km/h (2 Bft) W-NW 302 0 min 0,000 mm 90 W/m 15,4 C 23,9 C 17,7 km/h (3 Bft) 100 %
04.07.2017 11:30 24,8 C 24,7 C 24,8 C 57 % 1019,7 hPa 0,0 l/m 5,5 km/h (1 Bft) W-NW 292 10 min 0,000 mm 854 W/m 15,7 C 24,8 C 17,7 km/h (3 Bft) 100 %
04.07.2017 11:40 24,9 C 24,8 C 24,9 C 60 % 1019,7 hPa 0,0 l/m 6,5 km/h (2 Bft) W-SW 246 10 min 0,000 mm 902 W/m 16,6 C 24,9 C 17,7 km/h (3 Bft) 100 %
04.07.2017 11:50 24,8 C 24,8 C 24,9 C 57 % 1019,5 hPa 0,0 l/m 6,2 km/h (2 Bft) W-NW 291 10 min 0,000 mm 244 W/m 15,7 C 24,8 C 16,1 km/h (3 Bft) 100 %
04.07.2017 12:00 24,2 C 24,2 C 24,8 C 59 % 1019,5 hPa 0,0 l/m 6,9 km/h (2 Bft) W 279 10 min 0,459 mm 197 W/m 15,7 C 24,1 C 19,3 km/h (3 Bft) 100 %
04.07.2017 12:10 24,1 C 24,0 C 24,2 C 60 % 1019,5 hPa 0,0 l/m 6,9 km/h (2 Bft) W 269 10 min 0,000 mm 250 W/m 15,8 C 24,0 C 16,1 km/h (3 Bft) 100 %
04.07.2017 12:20 24,3 C 24,1 C 24,3 C 60 % 1019,4 hPa 0,0 l/m 5,9 km/h (2 Bft) W 262 10 min 0,000 mm 1037 W/m 16,0 C 24,3 C 20,9 km/h (4 Bft) 100 %
04.07.2017 12:30 24,6 C 24,3 C 24,6 C 57 % 1019,5 hPa 0,0 l/m 8,1 km/h (2 Bft) W 270 10 min 0,000 mm 991 W/m 15,5 C 24,2 C 22,5 km/h (4 Bft) 100 %
04.07.2017 12:40 24,4 C 24,4 C 24,6 C 58 % 1019,5 hPa 0,0 l/m 9,9 km/h (2 Bft) W-NW 286 10 min 0,000 mm 181 W/m 15,6 C 23,5 C 20,9 km/h (4 Bft) 100 %
04.07.2017 12:50 24,1 C 24,1 C 24,4 C 55 % 1019,5 hPa 0,0 l/m 7,1 km/h (2 Bft) W 276 10 min 0,000 mm 1051 W/m 14,5 C 23,9 C 20,9 km/h (4 Bft) 100 %
04.07.2017 13:00 24,1 C 23,9 C 24,1 C 58 % 1019,4 hPa 0,0 l/m 8,1 km/h (2 Bft) W 267 10 min 0,457 mm 1053 W/m 15,3 C 23,6 C 19,3 km/h (3 Bft) 100 %
04.07.2017 13:10 24,7 C 24,1 C 24,7 C 56 % 1019,4 hPa 0,0 l/m 9,9 km/h (2 Bft) W-NW 294 10 min 0,000 mm 1023 W/m 15,3 C 23,9 C 20,9 km/h (4 Bft) 100 %
04.07.2017 13:20 24,8 C 24,7 C 24,8 C 56 % 1019,4 hPa 0,0 l/m 9,0 km/h (2 Bft) W-SW 257 10 min 0,000 mm 1018 W/m 15,4 C 24,2 C 22,5 km/h (4 Bft) 100 %
04.07.2017 13:30 25,1 C 24,8 C 25,1 C 57 % 1019,2 hPa 0,0 l/m 10,8 km/h (2 Bft) W 268 10 min 0,000 mm 1025 W/m 16,0 C 24,1 C 25,7 km/h (4 Bft) 100 %
04.07.2017 13:40 25,3 C 25,1 C 25,3 C 54 % 1019,2 hPa 0,0 l/m 10,1 km/h (2 Bft) W-NW 294 10 min 0,000 mm 1018 W/m 15,3 C 24,5 C 20,9 km/h (4 Bft) 100 %
04.07.2017 13:50 25,4 C 25,3 C 25,5 C 51 % 1019,1 hPa 0,0 l/m 10,1 km/h (2 Bft) W 279 10 min 0,000 mm 239 W/m 14,5 C 24,6 C 19,3 km/h (3 Bft) 100 %
04.07.2017 14:00 25,3 C 25,3 C 25,4 C 54 % 1019,1 hPa 0,0 l/m 6,1 km/h (2 Bft) W-NW 283 10 min 0,610 mm 1051 W/m 15,3 C 25,3 C 16,1 km/h (3 Bft) 100 %
04.07.2017 14:10 25,1 C 25,1 C 25,3 C 53 % 1019,0 hPa 0,0 l/m 8,2 km/h (2 Bft) W-NW 298 10 min 0,000 mm 1044 W/m 14,8 C 24,7 C 19,3 km/h (3 Bft) 100 %
04.07.2017 14:20 25,3 C 25,1 C 25,3 C 54 % 1018,9 hPa 0,0 l/m 7,9 km/h (2 Bft) S-SW 209 10 min 0,000 mm 970 W/m 15,3 C 24,9 C 17,7 km/h (3 Bft) 100 %
04.07.2017 14:30 25,7 C 25,3 C 25,7 C 56 % 1018,9 hPa 0,0 l/m 8,9 km/h (2 Bft) W-SW 250 10 min 0,000 mm 1009 W/m 16,2 C 25,1 C 27,4 km/h (4 Bft) 100 %
04.07.2017 14:40 26,0 C 25,7 C 26,0 C 53 % 1018,9 hPa 0,0 l/m 7,2 km/h (2 Bft) W-NW 288 10 min 0,000 mm 990 W/m 15,7 C 25,8 C 12,9 km/h (3 Bft) 99 %
04.07.2017 14:50 26,5 C 26,0 C 26,5 C 48 % 1018,9 hPa 0,0 l/m 7,9 km/h (2 Bft) W-NW 289 10 min 0,000 mm 972 W/m 14,6 C 26,2 C 20,9 km/h (4 Bft) 100 %
04.07.2017 15:00 26,3 C 26,3 C 26,5 C 51 % 1018,7 hPa 0,0 l/m 3,1 km/h (1 Bft) W-NW 286 0 min 0,558 mm 121 W/m 15,3 C 26,3 C 12,9 km/h (3 Bft) 100 %
04.07.2017 15:10 26,0 C 26,0 C 26,3 C 50 % 1018,8 hPa 0,0 l/m 6,7 km/h (2 Bft) W-NW 293 10 min 0,000 mm 891 W/m 14,8 C 25,9 C 17,7 km/h (3 Bft) 100 %
04.07.2017 15:20 25,7 C 25,7 C 26,0 C 52 % 1018,8 hPa 0,0 l/m 5,3 km/h (1 Bft) NW 317 10 min 0,000 mm 176 W/m 15,1 C 25,7 C 16,1 km/h (3 Bft) 100 %
04.07.2017 15:30 25,6 C 25,6 C 25,7 C 49 % 1018,7 hPa 0,0 l/m 1,0 km/h (0 Bft) NW 304 10 min 0,000 mm 155 W/m 14,1 C 25,6 C 8,0 km/h (2 Bft) 99 %
04.07.2017 15:40 25,8 C 25,5 C 25,8 C 52 % 1018,6 hPa 0,0 l/m 6,6 km/h (2 Bft) NW 309 10 min 0,000 mm 260 W/m 15,2 C 25,8 C 17,7 km/h (3 Bft) 100 %
04.07.2017 15:50 25,9 C 25,8 C 26,0 C 49 % 1018,5 hPa 0,0 l/m 7,9 km/h (2 Bft) NW 306 10 min 0,000 mm 171 W/m 14,4 C 25,6 C 14,5 km/h (3 Bft) 100 %
04.07.2017 16:00 25,9 C 25,9 C 25,9 C 54 % 1018,4 hPa 0,0 l/m 5,5 km/h (1 Bft) NW 308 0 min 0,280 mm 142 W/m 15,9 C 25,9 C 14,5 km/h (3 Bft) 100 %
04.07.2017 16:10 25,7 C 25,7 C 25,9 C 52 % 1018,4 hPa 0,0 l/m 4,7 km/h (1 Bft) N 360 10 min 0,000 mm 835 W/m 15,1 C 25,7 C 11,3 km/h (2 Bft) 100 %
04.07.2017 16:20 25,7 C 25,7 C 25,8 C 54 % 1018,3 hPa 0,0 l/m 4,4 km/h (1 Bft) NW 307 10 min 0,000 mm 770 W/m 15,7 C 25,7 C 12,9 km/h (3 Bft) 100 %
04.07.2017 16:30 25,7 C 25,6 C 25,7 C 54 % 1018,3 hPa 0,0 l/m 2,6 km/h (1 Bft) NW 309 10 min 0,000 mm 552 W/m 15,7 C 25,7 C 8,0 km/h (2 Bft) 100 %
04.07.2017 16:40 25,7 C 25,7 C 25,7 C 53 % 1018,2 hPa 0,0 l/m 4,6 km/h (1 Bft) W-NW 300 0 min 0,000 mm 116 W/m 15,4 C 25,7 C 12,9 km/h (3 Bft) 100 %
04.07.2017 16:50 25,7 C 25,7 C 25,8 C 53 % 1018,2 hPa 0,0 l/m 2,3 km/h (1 Bft) NO 40 0 min 0,000 mm 121 W/m 15,4 C 25,7 C 9,7 km/h (2 Bft) 100 %
04.07.2017 17:00 25,8 C 25,7 C 25,8 C 55 % 1018,1 hPa 0,0 l/m 1,7 km/h (1 Bft) W-NW 300 0 min 0,254 mm 95 W/m 16,1 C 25,8 C 9,7 km/h (2 Bft) 100 %
04.07.2017 17:10 25,9 C 25,8 C 25,9 C 51 % 1018,0 hPa 0,0 l/m 2,1 km/h (1 Bft) W-NW 298 0 min 0,000 mm 86 W/m 15,0 C 25,9 C 8,0 km/h (2 Bft) 100 %
04.07.2017 17:20 26,0 C 25,9 C 26,0 C 52 % 1018,0 hPa 0,0 l/m 1,1 km/h (1 Bft) NW 325 0 min 0,000 mm 107 W/m 15,4 C 26,0 C 6,4 km/h (2 Bft) 100 %
04.07.2017 17:30 26,0 C 25,9 C 26,0 C 52 % 1017,9 hPa 0,0 l/m 1,3 km/h (1 Bft) NW 304 0 min 0,000 mm 134 W/m 15,4 C 26,0 C 11,3 km/h (2 Bft) 100 %
04.07.2017 17:40 26,0 C 26,0 C 26,0 C 54 % 1017,9 hPa 0,0 l/m 3,2 km/h (1 Bft) W-NW 302 0 min 0,000 mm 72 W/m 16,0 C 26,0 C 11,3 km/h (2 Bft) 100 %
04.07.2017 17:50 25,4 C 25,4 C 26,0 C 53 % 1017,7 hPa 0,0 l/m 3,0 km/h (1 Bft) NW 313 0 min 0,000 mm 86 W/m 15,1 C 25,4 C 11,3 km/h (2 Bft) 100 %
04.07.2017 18:00 25,0 C 25,0 C 25,4 C 50 % 1017,6 hPa 0,0 l/m 0,4 km/h (0 Bft) NW 311 0 min 0,076 mm 88 W/m 13,8 C 25,0 C 4,8 km/h (1 Bft) 100 %
04.07.2017 18:10 25,2 C 25,0 C 25,2 C 53 % 1017,6 hPa 0,0 l/m 1,9 km/h (1 Bft) W-NW 290 0 min 0,000 mm 70 W/m 14,9 C 25,2 C 11,3 km/h (2 Bft) 100 %
04.07.2017 18:20 25,3 C 25,2 C 25,3 C 54 % 1017,6 hPa 0,0 l/m 3,9 km/h (1 Bft) W-NW 291 0 min 0,000 mm 69 W/m 15,3 C 25,3 C 12,9 km/h (3 Bft) 100 %
04.07.2017 18:30 25,4 C 25,3 C 25,4 C 52 % 1017,6 hPa 0,0 l/m 1,0 km/h (0 Bft) W-NW 291 0 min 0,000 mm 62 W/m 14,8 C 25,4 C 6,4 km/h (2 Bft) 100 %
04.07.2017 18:40 25,4 C 25,4 C 25,4 C 52 % 1017,6 hPa 0,0 l/m 3,9 km/h (1 Bft) W-NW 297 0 min 0,000 mm 62 W/m 14,8 C 25,4 C 11,3 km/h (2 Bft) 100 %
04.07.2017 18:50 25,4 C 25,4 C 25,4 C 53 % 1017,5 hPa 0,0 l/m 0,0 km/h (0 Bft) NW 310 0 min 0,000 mm 58 W/m 15,1 C 25,4 C 1,6 km/h (1 Bft) 100 %
04.07.2017 19:00 25,2 C 25,2 C 25,4 C 52 % 1017,4 hPa 0,0 l/m 2,2 km/h (1 Bft) NW 313 0 min 0,076 mm 54 W/m 14,6 C 25,2 C 9,7 km/h (2 Bft) 100 %
04.07.2017 19:10 25,2 C 25,2 C 25,2 C 52 % 1017,4 hPa 0,0 l/m 3,7 km/h (1 Bft) N-NW 330 0 min 0,000 mm 53 W/m 14,6 C 25,2 C 9,7 km/h (2 Bft) 100 %
04.07.2017 19:20 25,0 C 25,0 C 25,2 C 54 % 1017,4 hPa 0,0 l/m 0,6 km/h (0 Bft) N-NW 329 0 min 0,000 mm 51 W/m 15,0 C 25,0 C 6,4 km/h (2 Bft) 100 %
04.07.2017 19:30 24,8 C 24,7 C 25,0 C 53 % 1017,5 hPa 0,0 l/m 0,8 km/h (0 Bft) N-NW 329 0 min 0,000 mm 56 W/m 14,6 C 24,8 C 4,8 km/h (1 Bft) 100 %
04.07.2017 19:40 24,5 C 24,5 C 24,8 C 54 % 1017,4 hPa 0,0 l/m 1,6 km/h (1 Bft) W-NW 302 10 min 0,000 mm 179 W/m 14,6 C 24,5 C 6,4 km/h (2 Bft) 99 %
04.07.2017 19:50 24,3 C 24,3 C 24,5 C 55 % 1017,4 hPa 0,0 l/m 0,0 km/h (0 Bft) W-NW 302 0 min 0,000 mm 42 W/m 14,7 C 24,3 C 0,0 km/h (0 Bft) 100 %
04.07.2017 20:00 24,0 C 24,0 C 24,3 C 56 % 1017,4 hPa 0,0 l/m 0,0 km/h (0 Bft) W-NW 302 0 min 0,051 mm 39 W/m 14,7 C 24,0 C 0,0 km/h (0 Bft) 100 %
04.07.2017 20:10 23,7 C 23,7 C 24,0 C 59 % 1017,4 hPa 0,0 l/m 0,0 km/h (0 Bft) W-NW 302 0 min 0,000 mm 35 W/m 15,2 C 23,7 C 1,6 km/h (1 Bft) 100 %
04.07.2017 20:20 23,4 C 23,4 C 23,7 C 62 % 1017,4 hPa 0,0 l/m 0,0 km/h (0 Bft) W-NW 302 0 min 0,000 mm 32 W/m 15,7 C 23,4 C 0,0 km/h (0 Bft) 100 %
04.07.2017 20:30 23,0 C 23,0 C 23,4 C 64 % 1017,4 hPa 0,0 l/m 0,0 km/h (0 Bft) W-NW 302 0 min 0,000 mm 26 W/m 15,8 C 23,0 C 0,0 km/h (0 Bft) 100 %
04.07.2017 20:40 22,6 C 22,6 C 23,0 C 63 % 1017,5 hPa 0,0 l/m 0,0 km/h (0 Bft) W-NW 302 0 min 0,000 mm 21 W/m 15,2 C 22,6 C 0,0 km/h (0 Bft) 100 %
04.07.2017 20:50 22,3 C 22,3 C 22,6 C 64 % 1017,3 hPa 0,0 l/m 0,0 km/h (0 Bft) W-NW 302 0 min 0,000 mm 18 W/m 15,2 C 22,3 C 0,0 km/h (0 Bft) 100 %
04.07.2017 21:00 21,7 C 21,7 C 22,3 C 64 % 1017,2 hPa 0,0 l/m 0,0 km/h (0 Bft) W-NW 302 0 min 0,025 mm 14 W/m 14,6 C 21,7 C 0,0 km/h (0 Bft) 100 %
04.07.2017 21:10 21,3 C 21,3 C 21,7 C 67 % 1017,3 hPa 0,0 l/m 0,0 km/h (0 Bft) N 0 0 min 0,000 mm 12 W/m 14,9 C 21,3 C 0,0 km/h (0 Bft) 100 %
04.07.2017 21:20 20,7 C 20,7 C 21,2 C 68 % 1017,4 hPa 0,0 l/m 0,0 km/h (0 Bft) N 0 0 min 0,000 mm 7 W/m 14,6 C 20,7 C 0,0 km/h (0 Bft) 99 %
04.07.2017 21:30 20,3 C 20,3 C 20,7 C 68 % 1017,3 hPa 0,0 l/m 0,0 km/h (0 Bft) N 0 0 min 0,000 mm 0 W/m 14,2 C 20,3 C 0,0 km/h (0 Bft) 100 %
04.07.2017 21:40 19,9 C 19,9 C 20,3 C 67 % 1017,4 hPa 0,0 l/m 0,0 km/h (0 Bft) N 0 0 min 0,000 mm 0 W/m 13,6 C 19,9 C 0,0 km/h (0 Bft) 100 %
04.07.2017 21:50 19,7 C 19,7 C 19,9 C 67 % 1017,5 hPa 0,0 l/m 0,0 km/h (0 Bft) N 0 0 min 0,000 mm 0 W/m 13,4 C 19,7 C 0,0 km/h (0 Bft) 100 %
04.07.2017 22:00 19,4 C 19,4 C 19,7 C 70 % 1017,6 hPa 0,0 l/m 0,0 km/h (0 Bft) N 0 0 min 0,000 mm 0 W/m 13,8 C 19,4 C 0,0 km/h (0 Bft) 100 %
04.07.2017 22:10 19,1 C 19,1 C 19,4 C 70 % 1017,7 hPa 0,0 l/m 0,0 km/h (0 Bft) N 0 0 min 0,000 mm 0 W/m 13,5 C 19,1 C 0,0 km/h (0 Bft) 100 %
04.07.2017 22:20 18,8 C 18,8 C 19,1 C 71 % 1017,6 hPa 0,0 l/m 0,0 km/h (0 Bft) N 0 0 min 0,000 mm 0 W/m 13,4 C 18,8 C 0,0 km/h (0 Bft) 100 %
04.07.2017 22:30 18,5 C 18,5 C 18,8 C 72 % 1017,7 hPa 0,0 l/m 0,0 km/h (0 Bft) N 0 0 min 0,000 mm 0 W/m 13,4 C 18,5 C 0,0 km/h (0 Bft) 100 %
04.07.2017 22:40 18,3 C 18,3 C 18,5 C 72 % 1017,7 hPa 0,0 l/m 0,0 km/h (0 Bft) N 0 0 min 0,000 mm 0 W/m 13,2 C 18,3 C 0,0 km/h (0 Bft) 100 %
04.07.2017 22:50 18,1 C 18,1 C 18,3 C 73 % 1017,6 hPa 0,0 l/m 0,0 km/h (0 Bft) N 0 0 min 0,000 mm 0 W/m 13,2 C 18,1 C 0,0 km/h (0 Bft) 100 %
04.07.2017 23:00 17,8 C 17,8 C 18,1 C 75 % 1017,6 hPa 0,0 l/m 0,0 km/h (0 Bft) N 0 0 min 0,025 mm 0 W/m 13,3 C 17,8 C 0,0 km/h (0 Bft) 100 %
04.07.2017 23:10 17,6 C 17,6 C 17,8 C 76 % 1017,7 hPa 0,0 l/m 0,0 km/h (0 Bft) N 0 0 min 0,000 mm 0 W/m 13,3 C 17,6 C 0,0 km/h (0 Bft) 100 %
04.07.2017 23:20 17,3 C 17,3 C 17,6 C 77 % 1017,7 hPa 0,0 l/m 0,0 km/h (0 Bft) N 0 0 min 0,000 mm 0 W/m 13,2 C 17,3 C 0,0 km/h (0 Bft) 100 %
04.07.2017 23:30 17,1 C 17,1 C 17,3 C 79 % 1017,7 hPa 0,0 l/m 0,0 km/h (0 Bft) N 0 0 min 0,000 mm 0 W/m 13,4 C 17,1 C 0,0 km/h (0 Bft) 100 %
04.07.2017 23:40 16,8 C 16,8 C 17,1 C 81 % 1017,7 hPa 0,0 l/m 0,0 km/h (0 Bft) N 0 0 min 0,000 mm 0 W/m 13,5 C 16,8 C 0,0 km/h (0 Bft) 100 %
04.07.2017 23:50 16,5 C 16,5 C 16,8 C 82 % 1017,7 hPa 0,0 l/m 0,0 km/h (0 Bft) N 0 0 min 0,000 mm 0 W/m 13,4 C 16,5 C 0,0 km/h (0 Bft) 100 %
_ Min-Zeit 05:10 05:10 05:10 14:50 21:00 - 00:00 - - - - - 02:50 05:00 00:00 01:40
Minimum _ 13,3 C 13,3 C 13,4 C 48 % 1017,2 hPa - 0,0 km/h (0 Bft) - - - - - 11,6 C 13,4 C 0,0 km/h (0 Bft) 89 %
_ Max-Zeit 14:50 15:00 14:50 03:30 09:40 00:00 13:30 - - 08:20 14:00 13:00 11:40 15:00 14:30 11:20
Maximum _ 26,5 C 26,3 C 26,5 C 90 % 1020,1 hPa 0,0 l/m 10,8 km/h
W (2 Bft)
- - 10 min 0,610 mm 1053 W/m 16,6 C 26,3 C 27,4 km/h
W (4 Bft)
100 %
Durchschnitt _ 20,1 C 20,0 C 20,2 C 70 % 1018,9 hPa #0,0 l/m 2,3 km/h (1 Bft) W-NW - #8:00 h #3,987 mm 372 W/m 14,0 C 20,0 C 6,7 km/h (2 Bft) 99 %
PRIVATE WETTERSTATION BILLIGHEIM-ALLFELD - www.neckar-odenwald-wetter.de - Holger Sonntag